Flag for Germany Weather past 2 weeks in Buchholz in der Nordheide, Lower Saxony, Germany

Now
43 °F

Drizzle. Fog.


Feels Like: 39 °F
Forecast: 45 / 53 °F
Wind: 6 mph from West

Location: Hamburg-Finkenwerder

Current Time: Dec 17, 2014 at 9:41:14 PM

Latest Report: Dec 17, 2014 at 7:50 PM


Visibility: 2 mi

Pressure: 29.53 "Hg

Humidity: 100%

Dew point: 43 °F

Location of Buchholz in der NordheideLocation

Historic Weather in Buchholz in der Nordheide — Graph

°F

Buchholz in der Nordheide temperature yesterday

Maximum temperature yesterday: 43 °F (at 10:50 AM)
Minimum temperature yesterday: 37 °F (at 7:20 PM)
Average temperature yesterday: 41 °F

Past Weeks' High & Low Weather Summary

 TemperatureHumidityPressure
High48 °F (Dec 12, 2:50 PM)100% (Dec 4, 2:20 PM)30.30 "Hg (Dec 4, 2:20 PM)
Low27 °F (Dec 2, 8:50 PM)75% (Dec 10, 5:20 AM)29.18 "Hg (Dec 12, 1:20 PM)
Average38 °F93%29.85 "Hg
* Reported Dec 2 7:20 PM — Dec 17 7:50 PM, Buchholz in der Nordheide, Weather by CustomWeather, © 2014

Note: Actual official high and low records may vary slightly from our data, if they occured in-between our weather recording intervals... More about our weather records

Advertising

Buchholz in der Nordheide weather history for previous 24 hours

 ConditionsComfort  
Time TempWeatherWind HumidityBarometerVisibility
7:50 PM
Dec 17
43 °FDrizzle. Fog.6 mph100%29.53 "Hg2 mi
7:20 PM41 °FDrizzle. Fog.5 mph100%29.53 "Hg2 mi
6:50 PM41 °FFog.3 mph100%29.53 "Hg3 mi
6:20 PM39 °FFog.5 mph100%29.50 "Hg3 mi
5:50 PM39 °FDrizzle. Fog.5 mph100%29.50 "Hg2 mi
5:20 PM39 °FDrizzle. Fog.3 mph100%29.50 "Hg2 mi
4:50 PM39 °FPassing clouds.5 mph100%29.50 "Hg2 mi
4:20 PM39 °FDrizzle. Fog.5 mph100%29.50 "Hg2 mi
3:50 PM39 °FDrizzle. Fog.6 mph100%29.50 "Hg2 mi
3:20 PM37 °FLight rain. Fog.7 mph100%29.50 "Hg2 mi
2:50 PM37 °FLight rain. Partly sunny.7 mph100%29.50 "Hg4 mi
2:20 PM37 °FLight rain. Partly sunny.8 mph100%29.53 "Hg4 mi
1:50 PM39 °FLight rain. Partly sunny.7 mph93%29.53 "Hg6 mi
1:20 PM37 °FLight rain. Broken clouds.9 mph100%29.53 "HgN/A
12:50 PM37 °FLight rain. Broken clouds.8 mph100%29.56 "HgN/A
12:20 PM37 °FLight rain. Broken clouds.7 mph100%29.56 "Hg6 mi
11:50 AM37 °FLight rain. Broken clouds.9 mph100%29.59 "HgN/A
11:20 AM37 °FLight rain. Broken clouds.15 mph100%29.62 "Hg4 mi
10:50 AM39 °FLight rain. Broken clouds.14 mph93%29.62 "Hg5 mi
10:20 AM39 °FLight rain. Broken clouds.12 mph93%29.65 "Hg4 mi
9:50 AM39 °FPartly sunny.13 mph93%29.65 "Hg4 mi
9:20 AM37 °FPartly sunny.10 mph100%29.65 "Hg4 mi
8:50 AM37 °FPartly sunny.10 mph100%29.68 "Hg4 mi
8:20 AM37 °FPassing clouds.10 mph100%29.68 "Hg4 mi
7:50 AM36 °FPartly cloudy.10 mph100%29.68 "Hg5 mi
7:20 AM36 °FPartly cloudy.9 mph100%29.71 "HgN/A
6:50 AM36 °FPassing clouds.10 mph100%29.71 "HgN/A
6:20 AM36 °FPassing clouds.10 mph93%29.71 "HgN/A
5:50 AM34 °FPassing clouds.12 mph100%29.74 "HgN/A
Weather by CustomWeather, © 2014

See weather overviewHow to use our weather pages